Regional Weather Roundup
Issued by NWS Albany, NY

Home | Current Version | Previous Version | Graphics & Text | Print | Product List | Glossary Off
Versions: 1 2 3 4 5 6 7 8 9 10 11 12 13 14 15 16 17 18 19 20 21 22 23 24 25 26 27 28 29 30 31 32 33 34 35 36 37 38 39 40 41 42 43 44 45 46 47 48 49 50

000
ASUS41 KALY 221010
RWRALY

NEW YORK STATE HOURLY WEATHER ROUNDUP
NATIONAL WEATHER SERVICE ALBANY NY
600 AM EDT FRI AUG 22 2014

NOTE: "FAIR" INDICATES FEW OR NO CLOUDS BELOW 12,000 FEET WITH NO
SIGNIFICANT WEATHER AND/OR NO OBSTRUCTIONS TO VISIBILITY.

NYZ032-033-038>043-046>054-057>066-NYZ062>081-221100-
EAST


CITY           SKY/WX    TMP DP  RH WIND       PRES   REMARKS
ALBANY         CLOUDY    66  64  93 SE7       30.02R
GLENS FALLS    NOT AVBL
POUGHKEEPSIE   CLOUDY    67  63  87 SE5       30.01S
NEWBURGH       CLOUDY    64  64 100 CALM      30.04S
MONTGOMERY     CLOUDY    64  63  96 NW3       30.02S
WHITE PLAINS   PTCLDY    64  64 100 E5        30.01F
ISLIP          CLOUDY    64  61  90 E6        30.01S
NEW YORK CITY  PTCLDY    68  64  87 E6        30.00S
CENTRAL PARK   CLOUDY    67  65  93 SE7       30.03S FOG
$$

NYZ005>009-017-018-044>046-055-056-221100-
CENTRAL


CITY           SKY/WX    TMP DP  RH WIND       PRES   REMARKS
FULTON         CLOUDY    66  65  96 CALM      29.97S FOG
SYRACUSE       FOG       63  63 100 CALM      29.97S VSB 1/2
ROME           PTCLDY    65  64  97 E5        29.99S
ELMIRA         FOG       63  63 100 CALM      29.99S VSB 1/4
BINGHAMTON     FOG       60  60 100 SE3       30.01S VSB 1/4
MONTICELLO     CLOUDY    63  63 100 SE3       30.06R
$$

NYZ026>034-041>043-221100-
NORTH


CITY           SKY/WX    TMP DP  RH WIND       PRES   REMARKS
WATERTOWN      CLOUDY    66  61  84 NE3       29.97F
FORT DRUM      NOT AVBL
MASSENA        CLOUDY    63  62  97 NE6       30.01R
SARANAC LAKE   FOG       59  59 100 NE3       30.04R VSB 1/4
PLATTSBURGH    CLOUDY    63  60  90 S7        30.05R
$$

NYZ001>004-010>016-019>021-221100-
WEST


CITY           SKY/WX    TMP DP  RH WIND       PRES   REMARKS
NIAGARA FALLS  MOCLDY    62  60  93 N3        29.96R FOG
BUFFALO        MOCLDY    66  64  93 CALM      29.96S FOG
DUNKIRK        PTCLDY    64  63  96 CALM      29.96R FOG
JAMESTOWN      CLOUDY    66  64  94 CALM      30.00R
WELLSVILLE     FOG       64  62  93 CALM      30.04R VSB 1
ROCHESTER      MOCLDY    65  63  93 SW3       29.97R
PENN YAN       MOCLDY    65  63  93 CALM      29.98S
$$

             KEY
       WCI = WIND CHILL INDEX
       VSB = VISIBILITY
       HX  = HEAT INDEX
$$


USA.gov is the U.S. government's official web portal to all federal, state and local government web resources and services.